Location: Peebles
(55.6412°N, 3.1714°W)
Time: 06:18:32
(UTC+01:00)

deb Agena D - Pass Details

Date: 05 July 2022
Orbit: 797 x 980 km, 99.8° (Epoch: 16 August)

Event Time Altitude Azimuth Distance (km) Brightness Sun altitude
Rises 01:47:56 0° 14° (NNE) 3,367 11.4 -11.3°
Reaches altitude 10° 01:52:14 10° 341° (NNW) 2,468 9.7 -11.2°
Maximum altitude 01:53:38 11° 326° (NW) 2,408 9.3 -11.2°
Drops below altitude 10° 01:55:03 10° 311° (NW) 2,494 9.1 -11.1°
Sets 01:59:30 0° 277° (W) 3,476 9.4 -11.0°
